Location: Franzen
(48.6167°N, 15.3833°E)
Time: 22:55:27
(UTC+00:00)

Transit 2A - Pass Details

Date: 07 August 2021
Orbit: 594 x 964 km, 66.7° (Epoch: 26 September)

Event Time Altitude Azimuth Distance (km) Brightness Sun altitude
Rises 05:14:54 0° 246° (WSW) 2,875 8.4 13.9°
Reaches altitude 10° 05:17:19 10° 258° (WSW) 2,006 7.6 14.3°
Maximum altitude 05:21:18 30° 320° (NW) 1,184 6.9 15.0°
Drops below altitude 10° 05:25:37 10° 22° (NNE) 2,180 8.8 15.7°
Sets 05:28:22 0° 33° (NNE) 3,170 9.8 16.1°
